FENGYUN 1C DEB, 36675

Orbit data source: Space-Track

FENGYUN 1C DEB, 36675 is space debris in SSO originally from a launch on Mon, 10 May 1999 UTC launched from the Taiyaun Space Center, China (TSC). Fengyun 1C debris stems from the Chinese weather satellite Fengyun-1C, which was intentionally destroyed by a Chinese anti-satellite missile in 2007. This event dramatically increased the amount of space debris, with thousands of trackable fragments posing hazards to satellites and human spaceflight. The Fengyun 1C debris cloud has become a focal point in discussions about space sustainability and the need for international regulations to prevent the creation of new debris.

Loading next visibility...
Identifier
36675, 1999-025DYV
Orbit
SSO
Country
Flag of CNCN / PRC
Related business
Manufacturer
Unknown
Mission
Spacecraft
Bus & Motor
Unknown
Mass
Unknown
Launch date (UTC)
1999-05-10 (27 years ago)
Launch vehicle
Unknown
Launch site
Taiyaun Space Center, China (TSC)
Object type
Payload
Rocket body
Debris
Shape & HBR
Unknown shape, 1.1 m
Radar Cross Section
Medium (>0.1 m² and <1 m²)

Expand to show TLE details & history
Last TLE update: 1 week ago

TLE from 1 week ago
0 FENGYUN 1C DEB
1 36675U 99025DYV 26248.88419883  .00002827  00000-0  78396-3 0  9998
2 36675  99.2299 271.9037 0026679  60.1183 300.2653 14.47241259710878
Epoch: 2026-09-05T21:13Z
TLE epoch observation values (Epoch: 2026-09-05T21:13:14.778Z)
Latitude
-0.00002°
Longitude
-31.39514°
Altitude
728.079 km
Speed
7.496 km/s
True Right ascension
18h 07m 36s
True Declination
0° 00' 00"
Sunlit
Object was in daylight at epoch
Visualization orbit readout
Latitude
Unknown
Longitude
Unknown
Altitude
Unknown
Speed
Unknown
Apparent Right ascension
Unknown
Apparent Declination
Unknown
Sunlit
N/A
Visualization observer readout
Local Sidereal Time
17:48:42
Azimuth
Unknown
Elevation
Unknown
Doppler factor
Unknown
Orbital elements
Apogee altitude
750.79 km
Perigee altitude
712.853 km
Semi-major axis
7,109.958 km
Eccentricity
0.00267
Inclination
99.2299°
RAAN
271.9037°
Arg. of periapsis
60.1183°
True anomaly
300.00081°
Mean anomaly
300.2653°
Eccentric anomaly
300.1331°
Mean motion
3.62028 °/min
Orbital period
99.44 mins
BSTAR
0.00078396
Loading maneuver chart data...
Computing Atmospheric mass density...
Loading historical data...
Loading historical data...
Loading historical data...
Loading historical data...
Loading historical data...
Loading historical data...
Loading historical data...

Documentation

Showing up to 5 results
|